TimeEST,TemperatureF,Dew PointF,Humidity,Sea Level PressureIn,VisibilityMPH,Wind Direction,Wind SpeedMPH,Gust SpeedMPH,PrecipitationIn,Events,Conditions,WindDirDegrees,DateUTC
12:51 AM,30.0,7.0,38,30.02,10.0,WNW,23.0,36.8,N/A,,Scattered Clouds,290,2013-11-24 05:51:00
1:51 AM,28.0,1.0,31,30.04,10.0,NW,25.3,38.0,N/A,,Scattered Clouds,310,2013-11-24 06:51:00
2:51 AM,26.1,1.0,34,30.06,10.0,WNW,28.8,35.7,N/A,,Scattered Clouds,300,2013-11-24 07:51:00
3:51 AM,25.0,-0.9,33,30.06,10.0,WNW,27.6,40.3,N/A,,Scattered Clouds,300,2013-11-24 08:51:00
4:51 AM,25.0,-0.0,34,30.08,10.0,WNW,24.2,39.1,N/A,,Scattered Clouds,290,2013-11-24 09:51:00
5:51 AM,24.1,1.0,37,30.09,10.0,NW,26.5,34.5,N/A,,Scattered Clouds,310,2013-11-24 10:51:00
6:51 AM,24.1,3.9,42,30.11,10.0,WNW,25.3,32.2,N/A,,Scattered Clouds,290,2013-11-24 11:51:00
7:51 AM,25.0,3.9,41,30.13,10.0,WNW,20.7,34.5,N/A,,Scattered Clouds,300,2013-11-24 12:51:00
8:51 AM,26.1,3.0,37,30.14,10.0,WNW,26.5,36.8,N/A,,Scattered Clouds,300,2013-11-24 13:51:00
9:51 AM,27.0,1.0,33,30.16,10.0,NW,27.6,41.4,N/A,,Mostly Cloudy,310,2013-11-24 14:51:00
10:51 AM,28.0,-0.0,30,30.17,10.0,NW,36.8,47.2,N/A,,Mostly Cloudy,310,2013-11-24 15:51:00
11:51 AM,28.9,1.9,32,30.17,10.0,WNW,34.5,42.6,N/A,,Mostly Cloudy,300,2013-11-24 16:51:00
12:51 PM,30.0,-0.0,28,30.17,10.0,NW,29.9,40.3,N/A,,Scattered Clouds,310,2013-11-24 17:51:00
1:51 PM,30.9,-8.0,18,30.18,10.0,NNW,29.9,40.3,N/A,,Scattered Clouds,340,2013-11-24 18:51:00
2:51 PM,30.9,-7.1,19,30.22,10.0,NNW,28.8,39.1,N/A,,Scattered Clouds,330,2013-11-24 19:51:00
3:51 PM,28.9,-2.9,25,30.25,10.0,NW,24.2,33.4,N/A,,Scattered Clouds,320,2013-11-24 20:51:00
4:51 PM,28.0,-2.0,27,30.28,10.0,NW,20.7,28.8,N/A,,Scattered Clouds,310,2013-11-24 21:51:00
5:51 PM,27.0,3.0,36,30.32,10.0,NW,16.1,35.7,N/A,,Partly Cloudy,310,2013-11-24 22:51:00
6:51 PM,27.0,1.0,33,30.34,10.0,NW,18.4,32.2,N/A,,Partly Cloudy,310,2013-11-24 23:51:00
7:51 PM,27.0,-0.0,31,30.35,10.0,WNW,19.6,32.2,N/A,,Partly Cloudy,290,2013-11-25 00:51:00
8:51 PM,26.1,1.0,34,30.37,10.0,WNW,15.0,31.1,N/A,,Partly Cloudy,300,2013-11-25 01:51:00
9:51 PM,26.1,1.0,34,30.37,10.0,NW,20.7,31.1,N/A,,Partly Cloudy,310,2013-11-25 02:51:00
10:51 PM,25.0,1.9,37,30.38,10.0,WNW,18.4,29.9,N/A,,Partly Cloudy,290,2013-11-25 03:51:00
11:51 PM,25.0,3.0,39,30.39,10.0,WNW,18.4,25.3,N/A,,Partly Cloudy,300,2013-11-25 04:51:00